TOURFACTS.DK  
Stats and Facts from Tour de France.

Tour de France 2019 starts in 320 days
  Riders   Stages   Teams   Summits   Yearly  


 
Search by year

After 2018 - Stage 21:
 15000 starters.
  5165 different riders.
  638 teams.
  2253 stages.
  456 restdays.
  442940.60 km.
  5684 abandonnees.


Top 3
GC
Geraint Thomas83:17:13
Tom Dumoulin83:19:04
Christopher Froome83:19:37
Climb
Julian Alaphilippe170 pt.
Warren Barguil91 pt.
Rafal Majka76 pt.
Sprint
Peter Sagan477 pt.
Alexander Kristoff246 pt.
Arnaud Démare203 pt.
Youth
Pierre-Roger Latou..83:39:26
Egan Bernal83:45:05
Guillaume Martin84:01:31
Facts from Tour de France 2015
  |   Stages.  |   Stage winners.  |   Days in yellow  |   Average speed.  |   Route.  |   Teams.  |   All riders.  |   Rookies.  |  

  |   Withdrawls.  |   GC.  |   Polka  |   Green  |   White  |   Summits. (In tour)  |   Miscellaneous.  |  

Stage 15 on 19 - 07 - 2015
         Owning:    Christopher Froome      Christopher Froome      Peter Sagan      Nairo Quintana  

Pick a stage:  1 2 3 4 5 6 7 8 9 10 11 12 13 14 15 16 17 18 19 20 21
  MendeValence | Dist: 182.00 km.
Cat: 3Côte de BadarouxBELSerge Pauwels2 points 
Cat: 4Col du BezFRAThibaut Pinot1 points 
Cat: 4Col de la Croix de BauzonAUSMichael Rogers1 points 
Cat: 2Col de l'EscrinetFRAThibaut Pinot5 points 

Average speed for all riders in stage:  45,412 km./hr.
    Place:Name:Team:Time:Km/h:
1
GERAndré GreipelBELLotto Soudal03:56:35  +  00:00:00=46,157 
2
GERJohn DegenkolbDEUTeam Giant Alpecin03:56:35  +  00:00:00=46,157 
3
NORAlexander KristoffRUSTeam Katusha03:56:35  +  00:00:00=46,157 
44 SVKPeter SaganRUSTinkoff Saxo03:56:35  +  00:00:00=46,157 
55 NOREdvald Boasson HagenZAFMTN - Qhubeka P/B Samsung03:56:35  +  00:00:00=46,157 
66 URSRamunas NavardauskasUSATeam Cannondale - Garmin03:56:35  +  00:00:00=46,157 
77 FRAChristophe LaporteFRACofidis – Solutions Crédits03:56:35  +  00:00:00=46,157 
88 AUSMichael MatthewsAUSOrica - GreenEDGE03:56:35  +  00:00:00=46,157 
99 ITADavide CimolaiITALampre-Merida03:56:35  +  00:00:00=46,157 
1010 FRAFlorian VachonFRABretagne - Séché Environnement03:56:35  +  00:00:00=46,157 
1111 COLJarlinson Pantano GomezCHEIAM Cycling03:56:35  +  00:00:00=46,157 
1212 BELJan BakelantsFRAAg2r La Mondiale03:56:35  +  00:00:00=46,157 
1313 GERPaul VossDEUBora-Argon 1803:56:35  +  00:00:00=46,157 
1414 GERPaul MartensNLDTeam Lotto NL - Jumbo03:56:35  +  00:00:00=46,157 
1515 FRABryan CoquardFRATeam Europcar03:56:35  +  00:00:00=46,157 
1616 BELJulien VermoteBELEtixx - Quick Step03:56:35  +  00:00:00=46,157 
1717 FRABrice FeilluFRABretagne - Séché Environnement03:56:35  +  00:00:00=46,157 
1818 SUIGregory RastUSATrek Factory Racing03:56:35  +  00:00:00=46,157 
1919 SLOKristjan KorenUSATeam Cannondale - Garmin03:56:35  +  00:00:00=46,157 
2020 BELSerge PauwelsZAFMTN - Qhubeka P/B Samsung03:56:35  +  00:00:00=46,157 
2121 BELGreg Van AvermaetUSABMC Racing Team03:56:35  +  00:00:00=46,157 
2222 CZEJan BártaDEUBora-Argon 1803:56:35  +  00:00:00=46,157 
2323 KENChristopher FroomeGBRSky Procycling03:56:35  +  00:00:00=46,157 
2424 URSTanel KangertKAZAstana Pro Team03:56:35  +  00:00:00=46,157 
2525 USATejay Van GarderenUSABMC Racing Team03:56:35  +  00:00:00=46,157 
2626 PORNelson OliveiraITALampre-Merida03:56:35  +  00:00:00=46,157 
2727 SUIReto HollensteinCHEIAM Cycling03:56:35  +  00:00:00=46,157 
2828 ESPSamuel SanchezUSABMC Racing Team03:56:35  +  00:00:00=46,157 
2929 CZERoman KreuzigerRUSTinkoff Saxo03:56:35  +  00:00:00=46,157 
3030 ITAVincenzo NibaliKAZAstana Pro Team03:56:35  +  00:00:00=46,157 
3131 NEDRobert GesinkNLDTeam Lotto NL - Jumbo03:56:35  +  00:00:00=46,157 
3232 FRAMickaël CherelFRAAg2r La Mondiale03:56:35  +  00:00:00=46,157 
3333 WALGeraint ThomasGBRSky Procycling03:56:35  +  00:00:00=46,157 
3434 RSAReinardt Janse Van RensburgZAFMTN - Qhubeka P/B Samsung03:56:35  +  00:00:00=46,157 
3535 ESPAlejandro ValverdeESPMovistar Team03:56:35  +  00:00:00=46,157 
3636 FRAMatthieu LadagnousFRAFDJ03:56:35  +  00:00:00=46,157 
3737 NEDBauke MollemaUSATrek Factory Racing03:56:35  +  00:00:00=46,157 
3838 FRAWarren BarguilDEUTeam Giant Alpecin03:56:35  +  00:00:00=46,157 
3939 FRARomain BardetFRAAg2r La Mondiale03:56:35  +  00:00:00=46,157 
4040 ESPJonathan CastroviejoESPMovistar Team03:56:35  +  00:00:00=46,157 
4141 ESPRubén PlazaITALampre-Merida03:56:35  +  00:00:00=46,157 
4242 SUIMathias FrankCHEIAM Cycling03:56:35  +  00:00:00=46,157 
4343 FRAPierre RollandFRATeam Europcar03:56:35  +  00:00:00=46,157 
4444 SUIMartin ElmigerCHEIAM Cycling03:56:35  +  00:00:00=46,157 
4545 COLJosé SerpaITALampre-Merida03:56:35  +  00:00:00=46,157 
4646 ITAFilippo PozzatoITALampre-Merida03:56:35  +  00:00:00=46,157 
4747 NEDRoy CurversDEUTeam Giant Alpecin03:56:35  +  00:00:00=46,157 
4848 FRABenoit VaugrenardFRAFDJ03:56:35  +  00:00:00=46,157 
4949 ESPAlberto ContadorRUSTinkoff Saxo03:56:35  +  00:00:00=46,157 
5050 FRATony GallopinBELLotto Soudal03:56:35  +  00:00:00=46,157 
5151 ESPHaimar ZubeldiaUSATrek Factory Racing03:56:35  +  00:00:00=46,157 
5252 COLNairo QuintanaESPMovistar Team03:56:35  +  00:00:00=46,157 
5353 ESPLuis Angel MateFRACofidis – Solutions Crédits03:56:35  +  00:00:00=46,157 
5454 FRAThibaut PinotFRAFDJ03:56:35  +  00:00:00=46,157 
5555 POLBartosz HuzarskiDEUBora-Argon 1803:56:35  +  00:00:00=46,157 
5656 DENLars BakBELLotto Soudal03:56:35  +  00:00:00=46,157 
5757 ESPGorka Izaguirre InsaustiESPMovistar Team03:56:35  +  00:00:00=46,157 
5858 NEDSteven KruijswijkNLDTeam Lotto NL - Jumbo03:56:35  +  00:00:00=46,157 
5959 RSAJacques Janse Van RensburgZAFMTN - Qhubeka P/B Samsung03:56:35  +  00:00:00=46,157 
6060 ITAMichele ScarponiKAZAstana Pro Team03:56:35  +  00:00:00=46,157 
6161 ITAAdriano MaloriESPMovistar Team03:56:35  +  00:00:00=46,157 
6262 USAAndrew TalanskyUSATeam Cannondale - Garmin03:56:35  +  00:00:00=46,157 
6363 NEDBram TankinkNLDTeam Lotto NL - Jumbo03:56:35  +  00:00:00=46,157 
6464 ITAJacopo GuarnieriRUSTeam Katusha03:56:35  +  00:00:00=46,157 
6565 PORJosé João PimentaDEUBora-Argon 1803:56:55  +  00:00:20=46,092 
6666 BELKenneth VanbilsenFRACofidis – Solutions Crédits03:56:57  +  00:00:22=46,086 
6767 FRAAngelo TulikFRATeam Europcar03:56:59  +  00:00:24=46,079 
6868 NEDKoen De KortDEUTeam Giant Alpecin03:57:12  +  00:00:37=46,037 
6969 NEDPieter WeeningAUSOrica - GreenEDGE03:57:21  +  00:00:46=46,008 
7070 NEDLieuwe WestraKAZAstana Pro Team03:57:14  +  00:00:39=46,031 
7171 BELJens DebusschereBELLotto Soudal03:57:24  +  00:00:49=45,998 
7272 ITAMatteo BonoITALampre-Merida03:57:36  +  00:01:01=45,960 
7373 NEDJos Van EmdenNLDTeam Lotto NL - Jumbo03:57:36  +  00:01:01=45,960 
7474 DENMichael ValgrenRUSTinkoff Saxo03:57:36  +  00:01:01=45,960 
7575 FRABryan NauleauFRATeam Europcar03:57:39  +  00:01:04=45,950 
7676 AUSAdam HansenBELLotto Soudal03:57:41  +  00:01:06=45,943 
7777 AUTMarco HallerRUSTeam Katusha03:57:49  +  00:01:14=45,918 
7878 CZEZdenek StybarBELEtixx - Quick Step03:57:53  +  00:01:18=45,905 
7979 AUTGeorg PreidlerDEUTeam Giant Alpecin03:57:56  +  00:01:21=45,895 
8080 PORTiago PintoRUSTeam Katusha03:58:20  +  00:01:45=45,818 
8181 ITADamiano CarusoUSABMC Racing Team03:58:20  +  00:01:45=45,818 
8282 SUIDanilo WyssUSABMC Racing Team03:58:20  +  00:01:45=45,818 
8383 NEDWilco KeldermanNLDTeam Lotto NL - Jumbo03:58:20  +  00:01:45=45,818 
8484 LUXBob JungelsUSATrek Factory Racing03:58:20  +  00:01:45=45,818 
8585 SUIMichael SchärUSABMC Racing Team03:58:20  +  00:01:45=45,818 
8686 FRAArnaud GérardFRABretagne - Séché Environnement03:58:20  +  00:01:45=45,818 
8787 WALLuke RoweGBRSky Procycling03:58:20  +  00:01:45=45,818 
8888 FRANicolas RocheGBRSky Procycling03:58:20  +  00:01:45=45,818 
8989 ITAMatteo TosattoRUSTinkoff Saxo03:58:20  +  00:01:45=45,818 
9090 FRAJulien SimonFRACofidis – Solutions Crédits03:58:20  +  00:01:45=45,818 
9191 ENGIan StannardGBRSky Procycling03:58:20  +  00:01:45=45,818 
9292 FRAYohann GèneFRATeam Europcar03:58:20  +  00:01:45=45,818 
9393 ITADaniel OssUSABMC Racing Team03:58:20  +  00:01:45=45,818 
9494 NEDStef ClementCHEIAM Cycling03:58:49  +  00:02:14=45,725 
9595 FRAAlexis VuillermozFRAAg2r La Mondiale03:58:49  +  00:02:14=45,725 
9696 FRAPierrick FédrigoFRABretagne - Séché Environnement03:58:49  +  00:02:14=45,725 
9797 SUIMarcel WyssCHEIAM Cycling03:58:49  +  00:02:14=45,725 
9898 FRASylvain ChavanelCHEIAM Cycling03:58:49  +  00:02:14=45,725 
9999 ERIMerhawi GhebremedhinZAFMTN - Qhubeka P/B Samsung03:58:49  +  00:02:14=45,725 
100100 FRAPierre-Luc PérichonFRABretagne - Séché Environnement03:59:31  +  00:02:56=45,592 
101101 AUSLuke DurbridgeAUSOrica - GreenEDGE03:59:34  +  00:02:59=45,582 
102102 GERSimon GeschkeDEUTeam Giant Alpecin03:59:53  +  00:03:18=45,522 
103103 FRACyril GautierFRATeam Europcar03:59:53  +  00:03:18=45,522 
104104 HRVKristijan DurasekITALampre-Merida03:59:53  +  00:03:18=45,522 
105105 UKRAndriy GrivkoKAZAstana Pro Team04:00:16  +  00:03:41=45,450 
106106 KAZDmitriy GruzdevKAZAstana Pro Team04:00:16  +  00:03:41=45,450 
107107 CANSvein TuftAUSOrica - GreenEDGE04:00:22  +  00:03:47=45,431 
108108 AUSRohan DennisUSABMC Racing Team04:00:56  +  00:04:21=45,324 
109109 ITAManuel QuinziatoUSABMC Racing Team04:00:56  +  00:04:21=45,324 
110110 ITAGiampaolo CarusoRUSTeam Katusha04:00:56  +  00:04:21=45,324 
111111 ESPJoaquim RodriguezRUSTeam Katusha04:00:56  +  00:04:21=45,324 
112112 FRADamien GaudinFRAAg2r La Mondiale04:00:56  +  00:04:21=45,324 
113113 FRAChristophe RiblonFRAAg2r La Mondiale04:00:56  +  00:04:21=45,324 
114114 SUIJakob FuglsangKAZAstana Pro Team04:00:56  +  00:04:21=45,324 
115115 AUSRichie PorteGBRSky Procycling04:00:56  +  00:04:21=45,324 
116116 FRANicolas EdetFRACofidis – Solutions Crédits04:00:56  +  00:04:21=45,324 
117117 ESPDaniel NavarroFRACofidis – Solutions Crédits04:00:56  +  00:04:21=45,324 
118118 NEDAlbert TimmerDEUTeam Giant Alpecin04:00:56  +  00:04:21=45,324 
119119 FRAThomas VoecklerFRATeam Europcar04:00:56  +  00:04:21=45,324 
120120 GEREmanuel BuchmannDEUBora-Argon 1804:00:56  +  00:04:21=45,324 
121121 FRAPerrig QuemeneurFRATeam Europcar04:00:56  +  00:04:21=45,324 
122122 COLWinner AnaconaESPMovistar Team04:00:56  +  00:04:21=45,324 
123123 BELThomas De GendtBELLotto Soudal04:00:56  +  00:04:21=45,324 
124124 NEDLaurens ten DamNLDTeam Lotto NL - Jumbo04:00:56  +  00:04:21=45,324 
125125 POLMichal KwiatkowskiBELEtixx - Quick Step04:00:56  +  00:04:21=45,324 
126126 LUXLaurent DidierUSATrek Factory Racing04:00:56  +  00:04:21=45,324 
127127 COLJulián ArredondoUSATrek Factory Racing04:00:56  +  00:04:21=45,324 
128128 COLRigoberto UránBELEtixx - Quick Step04:00:56  +  00:04:21=45,324 
129129 AUSMichael RogersRUSTinkoff Saxo04:00:56  +  00:04:21=45,324 
130130 ESPRafael Valls FerriITALampre-Merida04:00:56  +  00:04:21=45,324 
131131 ESPJosé Herrada LópezESPMovistar Team04:00:56  +  00:04:21=45,324 
132132 CZELeopold KönigGBRSky Procycling04:00:56  +  00:04:21=45,324 
133133 BELTim WellensBELLotto Soudal04:00:56  +  00:04:21=45,324 
134134 ENGDaniel MartinUSATeam Cannondale - Garmin04:02:01  +  00:05:26=45,121 
135135 ENGAdam YatesAUSOrica - GreenEDGE04:02:01  +  00:05:26=45,121 
136136 ITAMatteo TrentinBELEtixx - Quick Step04:02:01  +  00:05:26=45,121 
137137 POLRafal MajkaRUSTinkoff Saxo04:02:01  +  00:05:26=45,121 
138138 ESPAlberto LosadaRUSTeam Katusha04:02:01  +  00:05:26=45,121 
139139 FRAAlexandre GeniezFRAFDJ04:02:01  +  00:05:26=45,121 
140140 NEDWout PoelsGBRSky Procycling04:02:01  +  00:05:26=45,121 
141141 NEDDylan Van BaarleUSATeam Cannondale - Garmin04:02:01  +  00:05:26=45,121 
142142 FRARomain SicardFRATeam Europcar04:02:01  +  00:05:26=45,121 
143143 ENGStephen CummingsZAFMTN - Qhubeka P/B Samsung04:02:01  +  00:05:26=45,121 
144144 CANRyder HesjedalUSATeam Cannondale - Garmin04:02:01  +  00:05:26=45,121 
145145 RSALouis MeintjesZAFMTN - Qhubeka P/B Samsung04:02:01  +  00:05:26=45,121 
146146 AUSNathan HaasUSATeam Cannondale - Garmin04:12:16  +  00:15:41=43,288 
147147 BELSam BennettDEUBora-Argon 1804:12:16  +  00:15:41=43,288 
148148 ERIDaniel TeklehaimanotZAFMTN - Qhubeka P/B Samsung04:12:16  +  00:15:41=43,288 
149149 GERMarcel SiebergBELLotto Soudal04:12:16  +  00:15:41=43,288 
150150 POLMichal GolasBELEtixx - Quick Step04:12:16  +  00:15:41=43,288 
151151 IOMMark CavendishBELEtixx - Quick Step04:12:16  +  00:15:41=43,288 
152152 AUSMark RenshawBELEtixx - Quick Step04:12:16  +  00:15:41=43,288 
153153 ESPMarkel IrizarUSATrek Factory Racing04:12:16  +  00:15:41=43,288 
154154 USATyler FarrarZAFMTN - Qhubeka P/B Samsung04:12:16  +  00:15:41=43,288 
155155 FRAFrédéric BrunFRABretagne - Séché Environnement04:12:16  +  00:15:41=43,288 
156156 BELStijn DevolderUSATrek Factory Racing04:12:16  +  00:15:41=43,288 
157157 FRAAnthony DelaplaceFRABretagne - Séché Environnement04:12:16  +  00:15:41=43,288 
158158 FRAFlorian SénéchalFRACofidis – Solutions Crédits04:12:16  +  00:15:41=43,288 
159159 FRAGeoffrey SoupeFRACofidis – Solutions Crédits04:12:16  +  00:15:41=43,288 
160160 FRAArnaud DémareFRAFDJ04:12:16  +  00:15:41=43,288 
161161 FRAArmindo FonsecaFRABretagne - Séché Environnement04:12:16  +  00:15:41=43,288 
162162 FRAJérémy RoyFRAFDJ04:12:16  +  00:15:41=43,288 
163163 ESPImanol ErvitiESPMovistar Team04:12:16  +  00:15:41=43,288 
164164 FRASébastien ChavanelFRAFDJ04:12:16  +  00:15:41=43,288 
165165 AUTMatthias BrändleCHEIAM Cycling04:12:16  +  00:15:41=43,288 
166166 FRAJean-Christophe PeraudFRAAg2r La Mondiale04:12:16  +  00:15:41=43,288 
167167 IOMPeter KennaughGBRSky Procycling04:12:16  +  00:15:41=43,288 
168168 ENGSimon YatesAUSOrica - GreenEDGE04:12:16  +  00:15:41=43,288 
169169 FRAJérôme CoppelCHEIAM Cycling04:12:16  +  00:15:41=43,288 
170170 BELSep VanmarckeNLDTeam Lotto NL - Jumbo04:12:16  +  00:15:41=43,288 
171171 NEDTom LeezerNLDTeam Lotto NL - Jumbo04:12:16  +  00:15:41=43,288 

Withdrawls: 1
 
Rider
Team
Reason
166  NEDSebastian LangeveldUSATeam Cannondale - GarminDid not finish
Todays birthdays.

1878  Jean Novo
1883  Jules Chabas
1890  Ange Aubry
1893  Roger Marye
1913  Paul Maye
1914  Lucien Vlaemynck
1915  Alphonse Antoine
1932  Rolf Graf
1953  Julio Rubiano
1959  Jos Haex
1959  Gerard Veldscholten
1963  Pablo Moreno
1964  Juan Castillo
1977  Iban Mayo
1994  Fernando Gaviria